Showing default

ION SCV-017, 63230

Orbit data source: Space-Track

ION SCV-017, 63230 is a payload satellite owned by D-ORBIT (IT) in SSO that was launched on Sat, 15 Mar 2025 UTC via an FALCON 9 launch vehicle from the Air Force Western Test Range (AFWTR). Payload-class satellites include a variety of spacecraft equipped with specific instruments for various scientific and technological missions. These include communications satellites like Starlink; space stations such as the ISS; scientific satellites like the Hubble; Earth observation satellites from companies like Planet Labs, Umbra, and HawkEye 360; GPS; miniature CubeSats for education and research; and military/defense satellites.

Loading next visibility...
Identifier
63230, 2025-052W
Orbit
SSO
Country
Flag of ITIT
Related business
Manufacturer
D-ORBIT
Mission
Operational Commercial Technology
Bus & Motor
ION-SC, PM200
Mass
220 kg wet, 150 kg dry
Launch date (UTC)
2025-03-15 (1 year ago)
Launch vehicle
FALCON 9
Launch site
Air Force Western Test Range (AFWTR)
Object type
Payload
Rocket body
Debris
Shape & HBR
Box, 0.8 m
Radar Cross Section
0.240 m², Medium (>0.1 m² and < 1m²)

Expand to show TLE details & history
Last TLE update: 15 hours ago

TLE from 15 hours ago
0 ION SCV-017
1 63230U 25052W   26127.22727962  .00003455  00000-0  13054-3 0  9996
2 63230  97.3948  22.7605 0021767 190.2230 169.8569 15.27461624 63784
Epoch: 2026-05-07T05:27Z
TLE epoch observation values (Epoch: 2026-05-07T05:27:16.959Z)
Latitude
-0.00006°
Longitude
75.8634°
Altitude
501.211 km
Speed
7.606 km/s
True Right ascension
01h 31m 02s
True Declination
0° 00' 00"
Sunlit
Object was in daylight at epoch
Visualization orbit readout
Latitude
Unknown
Longitude
Unknown
Altitude
Unknown
Speed
Unknown
Apparent Right ascension
Unknown
Apparent Declination
Unknown
Sunlit
N/A
Visualization observer readout
Local Sidereal Time
04:22:05
Azimuth
Unknown
Elevation
Unknown
Doppler factor
Unknown
Orbital elements
Apogee altitude
495.288 km
Perigee altitude
465.43 km
Semi-major axis
6,858.496 km
Eccentricity
0.00218
Inclination
97.3948°
RAAN
22.7605°
Arg. of periapsis
190.223°
True anomaly
169.90071°
Mean anomaly
169.8569°
Eccentric anomaly
169.87882°
Mean motion
3.8212 °/min
Orbital period
94.21 mins
BSTAR
0.00013054
Loading maneuver chart data...
Computing Atmospheric mass density...
Loading historical data...
Loading historical data...
Loading historical data...
Loading historical data...
Loading historical data...
Loading historical data...
Loading historical data...

Documentation

Showing up to 5 results
|